星链-1723 (STARLINK-1723 )

导读

STARLINK-1723是美国SpaceX公司星链星座的V1.0批次卫星,于2020年9月3日发射入轨。它运行在约550公里近地轨道,配备氪离子推进系统与相控阵通信天线,为全球提供低延迟卫星互联网接入,属于星链早期组网的核心卫星,设计寿命约5年,当前已超期服役,参与提供偏远地区通信、移动网络接入等服务,是星链全球覆盖网络的组成部分。

基本信息
目录编号:
46333
目录名称:
STARLINK-1723
国际标识:
2020-062J
轨道中心:
EARTH
卫星名称:
星链-1723
卫星全名:
星链-1723 (STARLINK-1723 )
卫星状态:
已陨落 最后检测时间 2026-03-06
发射日期:
2020-09-03 UTC
国别 :
美国 (US)
星等 :
--
该卫星已列入 空间交会检测服务 Space Conjunction Data Service (SCDS) ,当前飞行风险评估等级: 无高风险
轨道信息
数据来源 国际轨道数据
星历时间: 2026-03-06T09:02:01+0800
轨道信息已过期189天
半长轴: 6529.437km
偏心率: 0.0005836
轨道倾角: 53.031°
近地点辐角 232.128°
升交点赤经 340.323°
平近点角 127.924°
近地点: 147.489km
远地点: 155.111km
周期: 87.513分钟
每日圈数: 16.454672
详细信息
固有亮度:
5
最大亮度:
2.5
卫星平台:
Starlink V1.0
覆盖范围:
全球
运营商:
太空探索技术公司
运营商所在国:
美国
制造商(研发单位):
太空探索技术公司
制造商所在国:
美国
使用方式:
暂无
卫星简介
星链(Starlink)计划是由太空探索技术公司(SpaceX)提出的一个巨型低轨卫星互联网星座项目,计划在2019年至2024年间在太空搭建由约1.2万颗卫星组成的“星链”网络,其中1584颗将部署在地球上空550千米处的近地轨道,并从2020年开始工作。该卫星仍在工作。
与全量物体交会距离演化趋势
与全量物体交会风险概率演化趋势